Regional Weather Roundup
Issued by NWS Grand Forks, ND

Home | Current Version | Previous Version | Graphics & Text | Print | Product List | Glossary On
Versions: 1 2 3 4 5 6 7 8 9 10 11 12 13 14 15 16 17 18 19 20 21 22 23 24 25 26 27 28 29 30 31 32 33 34 35 36 37 38 39 40 41 42 43 44 45 46 47 48 49 50
000
ASUS43 KFGF 280931
RWRFGF
PRAIRIE TO PINES  WEATHER ROUNDUP
NATIONAL WEATHER SERVICE EASTERN NORTH DAKOTA/GRAND FORKS ND
400 AM CDT SUN MAY 28 2017

 **SATELLITE DATA USED TO AUGMENT SKY COVER AT AUTOMATED STATIONS**
 *****  WEATHER ACROSS EASTERN NORTH DAKOTA  *****

CITY           SKY/WX    TMP DP  RH WIND       PRES   REMARKS
GRAND FORKS    CLOUDY    54  49  83 W8        29.73F
GRAND FRKS AFB FAIR      51  47  85 NW9       29.74S
DEVILS LAKE    CLOUDY    52  47  83 NW12      29.79S
FARGO          LGT RAIN  52  49  89 NW9       29.76S
WAHPETON ARPT  FAIR      48  45  87 W10       29.78S
$$

 ***** WEATHER ACROSS CENTRAL AND WESTERN NORTH DAKOTA  *****

CITY           SKY/WX    TMP DP  RH WIND       PRES   REMARKS
BISMARCK       FAIR      46  42  86 W7        29.87F
MINOT          MOCLDY    54  45  71 W12       29.86R
JAMESTOWN      CLOUDY    50  44  80 NW5       29.80S
MINOT AFB      FAIR      51  46  83 W12       29.85R
GARRISON         N/A     45  42  89 NW12      29.88R
WILLISTON      FAIR      50  34  54 NW12      29.96R
DICKINSON      FAIR      41  36  82 W6        29.94R
HETTINGER      FAIR      44  38  79 CALM      29.97R
$$

 *****  OTHER AIRPORT OBSERVATIONS IN OUR AREA  *****

CITY           SKY/WX    TMP DP  RH WIND       PRES   REMARKS
WALHALLA       NOT AVBL
GRAFTON AIRPOR FAIR      50  48  93 NW10      29.75S
VALLEY CITY AR FAIR      46  46 100 W13       29.81S
CANDO          NOT AVBL
CAVALIER APRT  PTSUNNY   48  46  93 W7        29.74R
GWINNER        SUNNY     48  46  93 MISG      29.81S
SHEYENNE NWR     N/A     48  46  93 W7        29.95S
ROLLA          CLOUDY    52  46  82 NW13      29.81S
 ***** THE ABOVE OBSERVATIONS ARE NON NWS ARE NOT QUALITY
       CONTROLLED AND MAY MIS-REPORT RAIN FOR SNOW...
$$

  *****  WEATHER ACROSS NORTHERN MINNESOTA  *****

CITY           SKY/WX    TMP DP  RH WIND       PRES   REMARKS
FLAG ISLAND    CLOUDY    55  46  71 NW10      29.64S
WARROAD        CLOUDY    54  48  82 W5        29.67F
ROSEAU         MOCLDY    54  46  76 NW7       29.67F
HALLOCK        FAIR      46  45  93 NW6       29.72S
THF RVR FALLS  CLOUDY    51  48  89 W10       29.71S
BAUDETTE       FAIR      52  45  77 W7        29.65F
WASKISH        MOCLDY    52  50  93 S5        29.67S
CROOKSTON      CLOUDY    52  50  93 W7        29.73S
STEPHEN NDAWN    N/A     48  45  87 W6          N/A
GREENBUSH NDAW   N/A     48  45  87 W5          N/A
$$
  *****  WEATHER ACROSS CENTRAL AND WEST MINNESOTA  *****

CITY           SKY/WX    TMP DP  RH WIND       PRES   REMARKS
FOSSTON        CLOUDY    48  46  93 SW7       29.72S
BEMIDJI        CLOUDY    49  47  94 W7        29.69F
PARK RAPIDS    LGT RAIN  48  44  86 W13       29.71S
ELBOW LAKE     FAIR      49  47  93 NW9       29.77F
WADENA         FAIR      48  46  93 W7        29.73R
DETROIT LAKES  FAIR      48  46  93 W10       29.75S
MOORHEAD       DRIZZLE   52  46  82 NW9       29.77S
FERGUS FALLS   FAIR      48  48 100 NW7       29.76R
MORRIS MN      FAIR      52  46  82 NW14      29.78S
STAPLES        FAIR      48  46  93 W3        29.73S
$$
  *****  WEATHER ELSEWHERE ACROSS MINNESOTA  *****

CITY           SKY/WX    TMP DP  RH WIND       PRES   REMARKS
DULUTH         FAIR      57  47  69 SW9       29.70F
INTRNTL FALLS  FAIR      50  45  83 CALM      29.65F
ELY            FAIR      52  45  76 CALM      29.68F
CLOQUET        FAIR      52  45  76 S6        29.69F
WHEATON        FAIR      52  46  82 W9        29.81F
BRAINERD       FAIR      54  46  74 W3        29.71F
HIBBING        LGT RAIN  46  46 100 CALM      29.68F
ALEXANDRIA     FAIR      52  47  83 W13       29.76F
SAINT CLOUD    CLOUDY    57  48  72 SW5       29.72F
MINNEAPOLIS    MOCLDY    60  48  64 SW5       29.76F
$$

  *****  WEATHER ACROSS SOUTH DAKOTA  *****

CITY           SKY/WX    TMP DP  RH WIND       PRES   REMARKS
SIOUX FALLS    FAIR      54  51  90 W9        29.84F
BROOKINGS      FAIR      51  47  86 W9        29.84S
WATERTOWN      FAIR      51  46  83 NW8       29.83S
HURON          FAIR      47  44  90 CALM      29.85F
SISSETON         N/A     51  46  83 NW7       29.80S
ABERDEEN       FAIR      47  42  83 NW3       29.84F
MITCHELL       FAIR      53  46  77 W10       29.87F
PIERRE         FAIR      56  43  61 W9        29.89S
MOBRIDGE       FAIR      49  42  77 NW9       29.85S
RAPID CITY     FAIR      57  39  51 W13       30.01F
$$

  *****  SOME WEATHER IN NEARBY STATES *****

CITY           SKY/WX    TMP DP  RH WIND       PRES   REMARKS
GLASGOW MT     FAIR      53  40  61 W7        30.05R
GREAT FALLS MT FAIR      44  39  82 W3        30.17S
CHEYENNE WY    FAIR      42  32  67 W10       30.25S
SCOTTSBLUFF NE FAIR      43  39  86 NW6       30.16R
OMAHA NE       FAIR      53  49  86 CALM      29.90F
DES MOINES IA  MOCLDY    58  55  90 W3        29.85F
DAVENPORT IA   FAIR      60  58  92 NW9       29.76F
CHICAGO IL     MOCLDY    60  52  74 N3        29.76F
EAU CLAIRE WI  LGT RAIN  57  51  80 CALM      29.77F
LA CROSSE WI   CLOUDY    59  57  93 S5        29.79F
$$

  *****  SOME NATIONAL WEATHER *****

CITY           SKY/WX    TMP DP  RH WIND       PRES   REMARKS
LA GUARDIA NY  CLOUDY    59  56  89 E6        29.90S
RALEIGH NC     MOCLDY    68  66  93 W3        29.85R
ATLANTA GA     MOCLDY    69  63  81 CALM      29.93F
NEW ORLEANS LA MOCLDY    77  75  93 S5        29.92S
OKLAHOMA CITY  FAIR      67  62  84 N14       29.88S
ALBUQUERQUE NM FAIR      61  38  42 E22       30.16S
SALT LAKE CITY CLEAR     55  41  58 S3        30.21F
LOS ANGELES CA FAIR      60  57  89 S3        30.01F
BOISE ID       FAIR      58  41  53 SE8       30.16S
SEATTLE WA     FAIR      63  48  58 N6        30.07S
$$

*** WEATHER ACROSS MANITOBA...SASKATCHEWAN AND ONTARIO ***
                ***ONTARIO***

CITY           SKY/WX    TMP DP  RH WIND       PRES   REMARKS
GERALDTON      MOCLDY    46  45  93 SW3       29.70F
THUNDER BAY    CLOUDY    46  43  87 E2        29.70F
SIOUX LOOKOUT  CLOUDY    48  45  87 SE3       29.64F
TORONTO        PTCLDY    55  52  88 CALM      29.86F
BIG TROUT LK   CLEAR     43  41  93 SE3       29.62  FOG
PICKLE LAKE    NOT AVBL
DRYDEN         CLOUDY    55  45  67 S5        29.64S
KENORA         CLOUDY    54  46  76 NW7       29.64S
$$
                *** MANITOBA***

CITY           SKY/WX    TMP DP  RH WIND       PRES   REMARKS
BRANDON        CLOUDY    52  46  82 W9        29.78S
DAUPHIN        LGT RAIN  50  48  93 NW6       29.79R
ISLAND LAKE    CLOUDY    52  50  93 W5        29.60F
PILOT MOUND      N/A     48  46  93 W6          N/A
THE PAS        CLOUDY    43  41  93 NW10      29.77S
THOMPSON       LGT RAIN  41  39  93 N12       29.73R
WINNIPEG       MOCLDY    52  48  87 NW8       29.71S
LYNN LAKE      CLOUDY    41  39  93 N9        29.83S
CHURCHILL      CLOUDY    34  32  93 NE10      29.79R
GILLAM         CLOUDY    37  37 100 N10       29.68S FOG
$$
                ***SASKATCHEWAN***

CITY           SKY/WX    TMP DP  RH WIND       PRES   REMARKS
ESTEVAN        PTCLDY    45  39  81 W10       29.92R
KINDERSLEY     PTCLDY    50  39  66 N14       30.06R
LLOYDMINSTER   CLEAR     52  39  62 NW9       30.12R
PRINCE ALBERT  PTCLDY    48  43  81 NW8       29.96R
REGINA         MOCLDY    48  37  66 W2        29.94F
YORKTON          N/A     46  43  87 W12       29.85F
N. BATTLEFORD  CLEAR     48  41  76 N10       30.06R
LA RONGE       CLOUDY    50  46  87 NW6       29.95F
SASKATOON      PTCLDY    46  39  76 NW9       29.99R
SWIFT CURRENT  MOCLDY    50  39  66 SW12      30.02R
$$
NOTE: THESE ARE AUTOMATED STATIONS WITH LIMITED QUALITY CONTROL
      "FAIR" INDICATES FEW OR NO CLOUDS BELOW 12,000 FEET WITH NO
      SIGNIFICANT WEATHER AND/OR OBSTRUCTIONS TO VISIBILITY.
      SKY/WX - SKY CONDITION AND SIGNIFICANT WEATHER.
      TMP - AIR TEMPERATURE.    DP   - DEWPOINT TEMPERATURE.
      RH  - RELATIVE HUMIDITY.  PRES - PRESSURE.
      HX  - HEAT INDEX.         WCI  - WIND CHILL INDEX.
$




USA.gov is the U.S. government's official web portal to all federal, state and local government web resources and services.